TITAN 3C TRANSTAGE DEB, 43284

Orbit data source: Space-Track

TITAN 3C TRANSTAGE DEB, 43284 is space debris in GEO originally from a launch on Sun, 09 Feb 1969 UTC launched from the Air Force Eastern Test Range (AFETR). Debris objects in space refer to the collection of defunct objects orbiting the Earth. Examples of debris include non-operational satellites, rocket bodies, and fragments generated from explosions, collisions, or faulty payload assembly.

Loading next visibility...
Identifier
43284, 1969-013E
Orbit
GEO
Last TLE update
1 day ago
Origin
Manufacturer
Martin Marietta
Mission
Spacecraft
Bus & Motor
Unknown
Mass
Unknown
Launch date (UTC)
1969-02-09 (56 years ago)
Launch vehicle
Unknown
Launch site
Air Force Eastern Test Range (AFETR)
Object type
Payload
Rocket body
Debris
Shape & HBR
Unknown
Radar Cross Section
RCS unknown

Expand to show TLE details & history

TLE from 1 day ago
0 TITAN 3C TRANSTAGE DEB
1 43284U 69013E   25181.30972802 -.00000238  00000-0  00000+0 0  9991
2 43284   0.4280  64.4001 0144200  51.9489 245.1303  0.97232896 25875
Epoch: 2025-06-30T07:26Z
TLE epoch observation values (Epoch: 2025-06-30T07:26:00.5Z)
Latitude
-0.39429°
Longitude
-30.12279°
Altitude
36,927.945 km
Speed
3.024 km/s
True Right ascension
00h 00m 00s
True Declination
0° 23' 38"
Sunlit
Object was in daylight at epoch
Visualization orbit readout
Latitude
-0.2932°
Longitude
-8.61551°
Altitude
36,702.521 km
Speed
3.04 km/s
Apparent Right ascension
01h 50m 24s
Apparent Declination
-5° 57' 47"
Sunlit
Object is in daylight
Visualization observer readout
Local Sidereal Time
21:14:24
Azimuth
108.374° ESE
Elevation
11.931°
Doppler factor
1
Orbital elements
Apogee altitude
37,282.301 km
Perigee altitude
36,041.033 km
Semi-major axis
43,039.804 km
Eccentricity
0.01442
Inclination
0.428°
RAAN
64.4001°
Arg. of periapsis
51.9489°
True anomaly
Unknown
Mean anomaly
245.1303°
Eccentric anomaly
Unknown
Mean motion
0.24307 °/min
Orbital period
1,481.03 mins
BSTAR
0
Loading historical data...
43284 neighbors
Loading maneuver chart data...
Loading SW <> Apogee altitude chart data...

TITAN 3C TRANSTAGE DEB Visibility forecast

Observer location: undefined°, undefined°

Span
Click to sort rows by Start time (UTC) header in descending order
Start Az.
Max El. time (UTC)
Max El. Az.
Max El.
End time (UTC)
End Az.
1440 mins2025-07-01 09:36:06.153Z108.388° ESE2025-07-02 09:36:06.153Z116.877° SE18.839°2025-07-02 09:36:06.153Z116.877° SE
|